Year,Month,Day,Hour,Minute,Value (Times are PST for temperature in C)
2016,10,11,00,00,5.10
2016,10,11,00,01,5.10
2016,10,11,00,02,5.10
2016,10,11,00,03,5.10
2016,10,11,00,04,5.00
2016,10,11,00,05,5.00
2016,10,11,00,06,5.00
2016,10,11,00,07,5.00
2016,10,11,00,08,4.90
2016,10,11,00,09,4.90
2016,10,11,00,10,4.90
2016,10,11,00,11,4.90
2016,10,11,00,12,4.80
2016,10,11,00,13,4.80
2016,10,11,00,14,4.80
2016,10,11,00,15,4.80
2016,10,11,00,16,4.80
2016,10,11,00,17,4.80
2016,10,11,00,18,4.80
2016,10,11,00,19,4.80
2016,10,11,00,20,4.80
2016,10,11,00,21,4.70
2016,10,11,00,22,4.70
2016,10,11,00,23,4.70
2016,10,11,00,24,4.70
2016,10,11,00,25,4.60
2016,10,11,00,26,4.60
2016,10,11,00,27,4.60
2016,10,11,00,28,4.60
2016,10,11,00,29,4.60
2016,10,11,00,30,4.60
2016,10,11,00,31,4.60
2016,10,11,00,32,4.60
2016,10,11,00,33,4.60
2016,10,11,00,34,4.60
2016,10,11,00,35,4.60
2016,10,11,00,36,4.60
2016,10,11,00,37,4.60
2016,10,11,00,38,4.60
2016,10,11,00,39,4.60
2016,10,11,00,40,4.60
2016,10,11,00,41,4.60
2016,10,11,00,42,4.60
2016,10,11,00,43,4.60
2016,10,11,00,44,4.60
2016,10,11,00,45,4.60
2016,10,11,00,46,4.60
2016,10,11,00,47,4.60
2016,10,11,00,48,4.60
2016,10,11,00,49,4.60
2016,10,11,00,50,4.60
2016,10,11,00,51,4.60
2016,10,11,00,52,4.70
2016,10,11,00,53,4.70
2016,10,11,00,54,4.70
2016,10,11,00,55,4.70
2016,10,11,00,56,4.70
2016,10,11,00,57,4.60
2016,10,11,00,58,4.60
2016,10,11,00,59,4.60
2016,10,11,01,00,4.60
2016,10,11,01,01,4.60
2016,10,11,01,02,4.60
2016,10,11,01,03,4.60
2016,10,11,01,04,4.60
2016,10,11,01,05,4.60
2016,10,11,01,06,4.60
2016,10,11,01,07,4.60
2016,10,11,01,08,4.60
2016,10,11,01,09,4.50
2016,10,11,01,10,4.50
2016,10,11,01,11,4.40
2016,10,11,01,12,4.40
2016,10,11,01,13,4.40
2016,10,11,01,14,4.40
2016,10,11,01,15,4.30
2016,10,11,01,16,4.30
2016,10,11,01,17,4.30
2016,10,11,01,18,4.30
2016,10,11,01,19,4.30
2016,10,11,01,20,4.30
2016,10,11,01,21,4.30
2016,10,11,01,22,4.30
2016,10,11,01,23,4.30
2016,10,11,01,24,4.30
2016,10,11,01,25,4.30
2016,10,11,01,26,4.30
2016,10,11,01,27,4.30
2016,10,11,01,28,4.30
2016,10,11,01,29,4.30
2016,10,11,01,30,4.30
2016,10,11,01,31,4.40
2016,10,11,01,32,4.40
2016,10,11,01,33,4.40
2016,10,11,01,34,4.40
2016,10,11,01,35,4.40
2016,10,11,01,36,4.40
2016,10,11,01,37,4.30
2016,10,11,01,38,4.30
2016,10,11,01,39,4.30
2016,10,11,01,40,4.30
2016,10,11,01,41,4.20
2016,10,11,01,42,4.20
2016,10,11,01,43,4.20
2016,10,11,01,44,4.20
2016,10,11,01,45,4.10
2016,10,11,01,46,4.10
2016,10,11,01,47,4.10
2016,10,11,01,48,4.10
2016,10,11,01,49,4.10
2016,10,11,01,50,4.00
2016,10,11,01,51,4.10
2016,10,11,01,52,4.10
2016,10,11,01,53,4.10
2016,10,11,01,54,4.00
2016,10,11,01,55,4.00
2016,10,11,01,56,4.00
2016,10,11,01,57,4.00
2016,10,11,01,58,4.00
2016,10,11,01,59,4.00
2016,10,11,02,00,4.00
2016,10,11,02,01,4.00
2016,10,11,02,02,4.00
2016,10,11,02,03,4.00
2016,10,11,02,04,3.90
2016,10,11,02,05,3.90
2016,10,11,02,06,3.90
2016,10,11,02,07,3.90
2016,10,11,02,08,3.90
2016,10,11,02,09,3.90
2016,10,11,02,10,3.90
2016,10,11,02,11,3.90
2016,10,11,02,12,3.90
2016,10,11,02,13,3.80
2016,10,11,02,14,3.80
2016,10,11,02,15,3.80
2016,10,11,02,16,3.80
2016,10,11,02,17,3.80
2016,10,11,02,18,3.80
2016,10,11,02,19,3.80
2016,10,11,02,20,3.80
2016,10,11,02,21,3.80
2016,10,11,02,22,3.80
2016,10,11,02,23,3.80
2016,10,11,02,24,3.70
2016,10,11,02,25,3.70
2016,10,11,02,26,3.70
2016,10,11,02,27,3.70
2016,10,11,02,28,3.70
2016,10,11,02,29,3.70
2016,10,11,02,30,3.60
2016,10,11,02,31,3.60
2016,10,11,02,32,3.60
2016,10,11,02,33,3.60
2016,10,11,02,34,3.60
2016,10,11,02,35,3.60
2016,10,11,02,36,3.70
2016,10,11,02,37,3.70
2016,10,11,02,38,3.70
2016,10,11,02,39,3.70
2016,10,11,02,40,3.70
2016,10,11,02,41,3.70
2016,10,11,02,42,3.70
2016,10,11,02,43,3.80
2016,10,11,02,44,3.80
2016,10,11,02,45,3.80
2016,10,11,02,46,3.80
2016,10,11,02,47,3.80
2016,10,11,02,48,3.80
2016,10,11,02,49,3.80
2016,10,11,02,50,3.80
2016,10,11,02,51,3.80
2016,10,11,02,52,3.80
2016,10,11,02,53,3.80
2016,10,11,02,54,3.80
2016,10,11,02,55,3.80
2016,10,11,02,56,3.80
2016,10,11,02,57,3.80
2016,10,11,02,58,3.80
2016,10,11,02,59,3.80
2016,10,11,03,00,3.80
2016,10,11,03,01,3.80
2016,10,11,03,02,3.70
2016,10,11,03,03,3.70
2016,10,11,03,04,3.70
2016,10,11,03,05,3.60
2016,10,11,03,06,3.60
2016,10,11,03,07,3.50
2016,10,11,03,08,3.50
2016,10,11,03,09,3.40
2016,10,11,03,10,3.40
2016,10,11,03,11,3.40
2016,10,11,03,12,3.30
2016,10,11,03,13,3.30
2016,10,11,03,14,3.30
2016,10,11,03,15,3.30
2016,10,11,03,16,3.30
2016,10,11,03,17,3.40
2016,10,11,03,18,3.40
2016,10,11,03,19,3.40
2016,10,11,03,20,3.40
2016,10,11,03,21,3.40
2016,10,11,03,22,3.40
2016,10,11,03,23,3.40
2016,10,11,03,24,3.40
2016,10,11,03,25,3.30
2016,10,11,03,26,3.30
2016,10,11,03,27,3.30
2016,10,11,03,28,3.30
2016,10,11,03,29,3.30
2016,10,11,03,30,3.30
2016,10,11,03,31,3.30
2016,10,11,03,32,3.30
2016,10,11,03,33,3.30
2016,10,11,03,34,3.20
2016,10,11,03,35,3.20
2016,10,11,03,36,3.20
2016,10,11,03,37,3.20
2016,10,11,03,38,3.20
2016,10,11,03,39,3.20
2016,10,11,03,40,3.20
2016,10,11,03,41,3.20
2016,10,11,03,42,3.30
2016,10,11,03,43,3.30
2016,10,11,03,44,3.30
2016,10,11,03,45,3.30
2016,10,11,03,46,3.30
2016,10,11,03,47,3.30
2016,10,11,03,48,3.40
2016,10,11,03,49,3.40
2016,10,11,03,50,3.40
2016,10,11,03,51,3.40
2016,10,11,03,52,3.40
2016,10,11,03,53,3.40
2016,10,11,03,54,3.40
2016,10,11,03,55,3.40
2016,10,11,03,56,3.40
2016,10,11,03,57,3.40
2016,10,11,03,58,3.40
2016,10,11,03,59,3.40
2016,10,11,04,00,3.30
2016,10,11,04,01,3.30
2016,10,11,04,02,3.30
2016,10,11,04,03,3.30
2016,10,11,04,04,3.30
2016,10,11,04,05,3.30
2016,10,11,04,06,3.30
2016,10,11,04,07,3.20
2016,10,11,04,08,3.30
2016,10,11,04,09,3.30
2016,10,11,04,10,3.30
2016,10,11,04,11,3.30
2016,10,11,04,12,3.30
2016,10,11,04,13,3.30
2016,10,11,04,14,3.30
2016,10,11,04,15,3.30
2016,10,11,04,16,3.30
2016,10,11,04,17,3.30
2016,10,11,04,18,3.30
2016,10,11,04,19,3.30
2016,10,11,04,20,3.30
2016,10,11,04,21,3.30
2016,10,11,04,22,3.30
2016,10,11,04,23,3.30
2016,10,11,04,24,3.30
2016,10,11,04,25,3.30
2016,10,11,04,26,3.30
2016,10,11,04,27,3.20
2016,10,11,04,28,3.20
2016,10,11,04,29,3.20
2016,10,11,04,30,3.10
2016,10,11,04,31,3.10
2016,10,11,04,32,3.10
2016,10,11,04,33,3.00
2016,10,11,04,34,3.00
2016,10,11,04,35,2.90
2016,10,11,04,36,2.90
2016,10,11,04,37,2.90
2016,10,11,04,38,2.90
2016,10,11,04,39,2.90
2016,10,11,04,40,2.90
2016,10,11,04,41,2.90
2016,10,11,04,42,2.90
2016,10,11,04,43,2.90
2016,10,11,04,44,2.90
2016,10,11,04,45,2.90
2016,10,11,04,46,2.90
2016,10,11,04,47,2.90
2016,10,11,04,48,2.80
2016,10,11,04,49,2.80
2016,10,11,04,50,2.80
2016,10,11,04,51,2.80
2016,10,11,04,52,2.80
2016,10,11,04,53,2.80
2016,10,11,04,54,2.80
2016,10,11,04,55,2.80
2016,10,11,04,56,2.70
2016,10,11,04,57,2.70
2016,10,11,04,58,2.70
2016,10,11,04,59,2.70
2016,10,11,05,00,2.70
2016,10,11,05,01,2.70
2016,10,11,05,02,2.70
2016,10,11,05,03,2.70
2016,10,11,05,04,2.70
2016,10,11,05,05,2.60
2016,10,11,05,06,2.60
2016,10,11,05,07,2.60
2016,10,11,05,08,2.50
2016,10,11,05,09,2.50
2016,10,11,05,10,2.50
2016,10,11,05,11,2.40
2016,10,11,05,12,2.40
2016,10,11,05,13,2.40
2016,10,11,05,14,2.40
2016,10,11,05,15,2.40
2016,10,11,05,16,2.40
2016,10,11,05,17,2.40
2016,10,11,05,18,2.50
2016,10,11,05,19,2.50
2016,10,11,05,20,2.50
2016,10,11,05,21,2.60
2016,10,11,05,22,2.60
2016,10,11,05,23,2.70
2016,10,11,05,24,2.70
2016,10,11,05,25,2.70
2016,10,11,05,26,2.70
2016,10,11,05,27,2.70
2016,10,11,05,28,2.70
2016,10,11,05,29,2.70
2016,10,11,05,30,2.70
2016,10,11,05,31,2.70
2016,10,11,05,32,2.70
2016,10,11,05,33,2.70
2016,10,11,05,34,2.70
2016,10,11,05,35,2.70
2016,10,11,05,36,2.70
2016,10,11,05,37,2.70
2016,10,11,05,38,2.70
2016,10,11,05,39,2.70
2016,10,11,05,40,2.70
2016,10,11,05,41,2.70
2016,10,11,05,42,2.70
2016,10,11,05,43,2.70
2016,10,11,05,44,2.70
2016,10,11,05,45,2.70
2016,10,11,05,46,2.70
2016,10,11,05,47,2.70
2016,10,11,05,48,2.70
2016,10,11,05,49,2.70
2016,10,11,05,50,2.70
2016,10,11,05,51,2.70
2016,10,11,05,52,2.70
2016,10,11,05,53,2.70
2016,10,11,05,54,2.70
2016,10,11,05,55,2.70
2016,10,11,05,56,2.70
2016,10,11,05,57,2.70
2016,10,11,05,58,2.70
2016,10,11,05,59,2.80
2016,10,11,06,00,2.80
2016,10,11,06,01,2.80
2016,10,11,06,02,2.80
2016,10,11,06,03,2.80
2016,10,11,06,04,2.80
2016,10,11,06,05,2.80
2016,10,11,06,06,2.80
2016,10,11,06,07,2.80
2016,10,11,06,08,2.80
2016,10,11,06,09,2.80
2016,10,11,06,10,2.80
2016,10,11,06,11,2.80
2016,10,11,06,12,2.80
2016,10,11,06,13,2.80
2016,10,11,06,14,2.80
2016,10,11,06,15,2.80
2016,10,11,06,16,2.80
2016,10,11,06,17,2.80
2016,10,11,06,18,2.80
2016,10,11,06,19,2.80
2016,10,11,06,20,2.90
2016,10,11,06,21,2.90
2016,10,11,06,22,2.90
2016,10,11,06,23,2.90
2016,10,11,06,24,2.90
2016,10,11,06,25,2.90
2016,10,11,06,26,2.90
2016,10,11,06,27,2.90
2016,10,11,06,28,2.90
2016,10,11,06,29,2.90
2016,10,11,06,30,2.90
2016,10,11,06,31,2.90
2016,10,11,06,32,3.00
2016,10,11,06,33,3.00
2016,10,11,06,34,2.90
2016,10,11,06,35,3.00
2016,10,11,06,36,3.00
2016,10,11,06,37,3.00
2016,10,11,06,38,3.00
2016,10,11,06,39,3.00
2016,10,11,06,40,3.00
2016,10,11,06,41,3.00
2016,10,11,06,42,3.00
2016,10,11,06,43,3.00
2016,10,11,06,44,3.00
2016,10,11,06,45,3.00
2016,10,11,06,46,3.00
2016,10,11,06,47,3.00
2016,10,11,06,48,3.00
2016,10,11,06,49,3.00
2016,10,11,06,50,2.90
2016,10,11,06,51,2.90
2016,10,11,06,52,2.90
2016,10,11,06,53,2.90
2016,10,11,06,54,2.90
2016,10,11,06,55,2.90
2016,10,11,06,56,2.90
2016,10,11,06,57,2.90
2016,10,11,06,58,2.90
2016,10,11,06,59,2.90
2016,10,11,07,00,2.90
2016,10,11,07,01,2.90
2016,10,11,07,02,2.90
2016,10,11,07,03,2.90
2016,10,11,07,04,2.90
2016,10,11,07,05,2.90
2016,10,11,07,06,2.90
2016,10,11,07,07,2.90
2016,10,11,07,08,2.90
2016,10,11,07,09,2.90
2016,10,11,07,10,2.90
2016,10,11,07,11,2.90
2016,10,11,07,12,2.90
2016,10,11,07,13,2.90
2016,10,11,07,14,2.90
2016,10,11,07,15,2.90
2016,10,11,07,16,2.90
2016,10,11,07,17,2.90
2016,10,11,07,18,2.90
2016,10,11,07,19,2.90
2016,10,11,07,20,2.90
2016,10,11,07,21,2.90
2016,10,11,07,22,2.90
2016,10,11,07,23,2.90
2016,10,11,07,24,2.90
2016,10,11,07,25,2.80
2016,10,11,07,26,2.80
2016,10,11,07,27,2.80
2016,10,11,07,28,2.80
2016,10,11,07,29,2.80
2016,10,11,07,30,2.80
2016,10,11,07,31,2.80
2016,10,11,07,32,2.80
2016,10,11,07,33,2.80
2016,10,11,07,34,2.80
2016,10,11,07,35,2.80
2016,10,11,07,36,2.80
2016,10,11,07,37,2.80
2016,10,11,07,38,2.80
2016,10,11,07,39,2.80
2016,10,11,07,40,2.80
2016,10,11,07,41,2.80
2016,10,11,07,42,2.80
2016,10,11,07,43,2.80
2016,10,11,07,44,2.80
2016,10,11,07,45,2.80
2016,10,11,07,46,2.80
2016,10,11,07,47,2.80
2016,10,11,07,48,2.80
2016,10,11,07,49,2.80
2016,10,11,07,50,2.80
2016,10,11,07,51,2.80
2016,10,11,07,52,2.80
2016,10,11,07,53,2.80
2016,10,11,07,54,2.80
2016,10,11,07,55,2.80
2016,10,11,07,56,2.80
2016,10,11,07,57,2.80
2016,10,11,07,58,2.80
2016,10,11,07,59,2.70
2016,10,11,08,00,2.70
2016,10,11,08,01,2.70
2016,10,11,08,02,2.70
2016,10,11,08,03,2.70
2016,10,11,08,04,2.80
2016,10,11,08,05,2.80
2016,10,11,08,06,2.80
2016,10,11,08,07,2.80
2016,10,11,08,08,2.80
2016,10,11,08,09,2.80
2016,10,11,08,10,2.80
2016,10,11,08,11,2.80
2016,10,11,08,12,2.80
2016,10,11,08,13,2.80
2016,10,11,08,14,2.80
2016,10,11,08,15,2.80
2016,10,11,08,16,2.80
2016,10,11,08,17,2.90
2016,10,11,08,18,2.90
2016,10,11,08,19,2.90
2016,10,11,08,20,2.90
2016,10,11,08,21,2.90
2016,10,11,08,22,2.90
2016,10,11,08,23,2.90
2016,10,11,08,24,2.90
2016,10,11,08,25,2.90
2016,10,11,08,26,2.90
2016,10,11,08,27,3.00
2016,10,11,08,28,3.00
2016,10,11,08,29,3.00
2016,10,11,08,30,3.00
2016,10,11,08,31,3.00
2016,10,11,08,32,3.00
2016,10,11,08,33,3.00
2016,10,11,08,34,3.00
2016,10,11,08,35,3.00
2016,10,11,08,36,3.00
2016,10,11,08,37,3.00
2016,10,11,08,38,3.00
2016,10,11,08,39,3.10
2016,10,11,08,40,3.10
2016,10,11,08,41,3.10
2016,10,11,08,42,3.10
2016,10,11,08,43,3.10
2016,10,11,08,44,3.20
2016,10,11,08,45,3.20
2016,10,11,08,46,3.20
2016,10,11,08,47,3.20
2016,10,11,08,48,3.20
2016,10,11,08,49,3.20
2016,10,11,08,50,3.20
2016,10,11,08,51,3.30
2016,10,11,08,52,3.30
2016,10,11,08,53,3.30
2016,10,11,08,54,3.20
2016,10,11,08,55,3.20
2016,10,11,08,56,3.20
2016,10,11,08,57,3.20
2016,10,11,08,58,3.20
2016,10,11,08,59,3.20
2016,10,11,09,00,3.20
2016,10,11,09,01,3.20
2016,10,11,09,02,3.20
2016,10,11,09,03,3.20
2016,10,11,09,04,3.30
2016,10,11,09,05,3.30
2016,10,11,09,06,3.30
2016,10,11,09,07,3.30
2016,10,11,09,08,3.30
2016,10,11,09,09,3.30
2016,10,11,09,10,3.30
2016,10,11,09,11,3.30
2016,10,11,09,12,3.30
2016,10,11,09,13,3.30
2016,10,11,09,14,3.30
2016,10,11,09,15,3.30
2016,10,11,09,16,3.30
2016,10,11,09,17,3.30
2016,10,11,09,18,3.30
2016,10,11,09,19,3.30
2016,10,11,09,20,3.30
2016,10,11,09,21,3.30
2016,10,11,09,22,3.30
2016,10,11,09,23,3.40
2016,10,11,09,24,3.40
2016,10,11,09,25,3.40
2016,10,11,09,26,3.40
2016,10,11,09,27,3.40
2016,10,11,09,28,3.40
2016,10,11,09,29,3.40
2016,10,11,09,30,3.40
2016,10,11,09,31,3.40
2016,10,11,09,32,3.40
2016,10,11,09,33,3.50
2016,10,11,09,34,3.50
2016,10,11,09,35,3.50
2016,10,11,09,36,3.50
2016,10,11,09,37,3.60
2016,10,11,09,38,3.60
2016,10,11,09,39,3.60
2016,10,11,09,40,3.60
2016,10,11,09,41,3.70
2016,10,11,09,42,3.70
2016,10,11,09,43,3.70
2016,10,11,09,44,3.70
2016,10,11,09,45,3.80
2016,10,11,09,46,3.80
2016,10,11,09,47,3.80
2016,10,11,09,48,3.80
2016,10,11,09,49,3.80
2016,10,11,09,50,3.80
2016,10,11,09,51,3.80
2016,10,11,09,52,3.90
2016,10,11,09,53,3.90
2016,10,11,09,54,3.90
2016,10,11,09,55,3.90
2016,10,11,09,56,3.90
2016,10,11,09,57,3.90
2016,10,11,09,58,4.00
2016,10,11,09,59,4.10
2016,10,11,10,00,4.10
2016,10,11,10,01,4.10
2016,10,11,10,02,4.10
2016,10,11,10,03,4.10
2016,10,11,10,04,4.10
2016,10,11,10,05,4.10
2016,10,11,10,06,4.10
2016,10,11,10,07,4.10
2016,10,11,10,08,4.10
2016,10,11,10,09,4.10
2016,10,11,10,10,4.10
2016,10,11,10,11,4.10
2016,10,11,10,12,4.10
2016,10,11,10,13,4.10
2016,10,11,10,14,4.10
2016,10,11,10,15,4.10
2016,10,11,10,16,4.10
2016,10,11,10,17,4.10
2016,10,11,10,18,4.10
2016,10,11,10,19,4.10
2016,10,11,10,20,4.20
2016,10,11,10,21,4.20
2016,10,11,10,22,4.20
2016,10,11,10,23,4.20
2016,10,11,10,24,4.20
2016,10,11,10,25,4.30
2016,10,11,10,26,4.30
2016,10,11,10,27,4.30
2016,10,11,10,28,4.40
2016,10,11,10,29,4.40
2016,10,11,10,30,4.50
2016,10,11,10,31,4.60
2016,10,11,10,32,4.60
2016,10,11,10,33,4.70
2016,10,11,10,34,4.70
2016,10,11,10,35,4.70
2016,10,11,10,36,4.70
2016,10,11,10,37,4.70
2016,10,11,10,38,4.70
2016,10,11,10,39,4.60
2016,10,11,10,40,4.60
2016,10,11,10,41,4.60
2016,10,11,10,42,4.60
2016,10,11,10,43,4.60
2016,10,11,10,44,4.60
2016,10,11,10,45,4.70
2016,10,11,10,46,4.70
2016,10,11,10,47,4.80
2016,10,11,10,48,4.80
2016,10,11,10,49,4.80
2016,10,11,10,50,4.70
2016,10,11,10,51,4.70
2016,10,11,10,52,4.70
2016,10,11,10,53,4.70
2016,10,11,10,54,4.70
2016,10,11,10,55,4.60
2016,10,11,10,56,4.60
2016,10,11,10,57,4.60
2016,10,11,10,58,4.60
2016,10,11,10,59,4.60
2016,10,11,11,00,4.60
2016,10,11,11,01,4.60
2016,10,11,11,02,4.70
2016,10,11,11,03,4.70
2016,10,11,11,04,4.70
2016,10,11,11,05,4.70
2016,10,11,11,06,4.70
2016,10,11,11,07,4.70
2016,10,11,11,08,4.80
2016,10,11,11,09,4.80
2016,10,11,11,10,4.80
2016,10,11,11,11,4.80
2016,10,11,11,12,4.90
2016,10,11,11,13,5.00
2016,10,11,11,14,5.00
2016,10,11,11,15,5.10
2016,10,11,11,16,5.10
2016,10,11,11,17,5.20
2016,10,11,11,18,5.30
2016,10,11,11,19,5.30
2016,10,11,11,20,5.40
2016,10,11,11,21,5.40
2016,10,11,11,22,5.30
2016,10,11,11,23,5.30
2016,10,11,11,24,5.30
2016,10,11,11,25,5.20
2016,10,11,11,26,5.20
2016,10,11,11,27,5.20
2016,10,11,11,28,5.20
2016,10,11,11,29,5.20
2016,10,11,11,30,5.20
2016,10,11,11,31,5.20
2016,10,11,11,32,5.20
2016,10,11,11,33,5.30
2016,10,11,11,34,5.30
2016,10,11,11,35,5.40
2016,10,11,11,36,5.50
2016,10,11,11,37,5.50
2016,10,11,11,38,5.60
2016,10,11,11,39,5.70
2016,10,11,11,40,5.70
2016,10,11,11,41,5.70
2016,10,11,11,42,5.70
2016,10,11,11,43,5.80
2016,10,11,11,44,5.70
2016,10,11,11,45,5.80
2016,10,11,11,46,5.80
2016,10,11,11,47,5.80
2016,10,11,11,48,5.80
2016,10,11,11,49,5.90
2016,10,11,11,50,5.90
2016,10,11,11,51,6.00
2016,10,11,11,52,6.00
2016,10,11,11,53,6.10
2016,10,11,11,54,6.20
2016,10,11,11,55,6.30
2016,10,11,11,56,6.30
2016,10,11,11,57,6.30
2016,10,11,11,58,6.40
2016,10,11,11,59,6.50
2016,10,11,12,00,6.60
2016,10,11,12,01,6.70
2016,10,11,12,02,6.80
2016,10,11,12,03,6.90
2016,10,11,12,04,7.10
2016,10,11,12,05,7.20
2016,10,11,12,06,7.20
2016,10,11,12,07,7.30
2016,10,11,12,08,7.40
2016,10,11,12,09,7.50
2016,10,11,12,10,7.50
2016,10,11,12,11,7.60
2016,10,11,12,12,7.60
2016,10,11,12,13,7.70
2016,10,11,12,14,7.70
2016,10,11,12,15,7.80
2016,10,11,12,16,7.80
2016,10,11,12,17,7.90
2016,10,11,12,18,8.00
2016,10,11,12,19,8.10
2016,10,11,12,20,8.20
2016,10,11,12,21,8.30
2016,10,11,12,22,8.50
2016,10,11,12,23,8.60
2016,10,11,12,24,8.70
2016,10,11,12,25,8.80
2016,10,11,12,26,8.80
2016,10,11,12,27,8.90
2016,10,11,12,28,8.90
2016,10,11,12,29,8.90
2016,10,11,12,30,9.00
2016,10,11,12,31,9.00
2016,10,11,12,32,9.00
2016,10,11,12,33,9.00
2016,10,11,12,34,9.10
2016,10,11,12,35,9.10
2016,10,11,12,36,9.20
2016,10,11,12,37,9.30
2016,10,11,12,38,9.40
2016,10,11,12,39,9.50
2016,10,11,12,40,9.60
2016,10,11,12,41,9.60
2016,10,11,12,42,9.70
2016,10,11,12,43,9.80
2016,10,11,12,44,9.80
2016,10,11,12,45,9.90
2016,10,11,12,46,9.90
2016,10,11,12,47,9.90
2016,10,11,12,48,10.00
2016,10,11,12,49,10.10
2016,10,11,12,50,10.10
2016,10,11,12,51,10.20
2016,10,11,12,52,10.20
2016,10,11,12,53,10.30
2016,10,11,12,54,10.40
2016,10,11,12,55,10.50
2016,10,11,12,56,10.60
2016,10,11,12,57,10.70
2016,10,11,12,58,10.70
2016,10,11,12,59,10.70
2016,10,11,13,00,10.80
2016,10,11,13,01,10.80
2016,10,11,13,02,10.80
2016,10,11,13,03,10.80
2016,10,11,13,04,10.80
2016,10,11,13,05,10.80
2016,10,11,13,06,10.80
2016,10,11,13,07,10.90
2016,10,11,13,08,10.90
2016,10,11,13,09,11.00
2016,10,11,13,10,11.00
2016,10,11,13,11,11.00
2016,10,11,13,12,11.00
2016,10,11,13,13,11.00
2016,10,11,13,14,11.00
2016,10,11,13,15,11.00
2016,10,11,13,16,11.00
2016,10,11,13,17,11.10
2016,10,11,13,18,11.10
2016,10,11,13,19,11.30
2016,10,11,13,20,11.40
2016,10,11,13,21,11.50
2016,10,11,13,22,11.60
2016,10,11,13,23,11.60
2016,10,11,13,24,11.60
2016,10,11,13,25,11.70
2016,10,11,13,26,11.70
2016,10,11,13,27,11.60
2016,10,11,13,28,11.70
2016,10,11,13,29,11.70
2016,10,11,13,30,11.70
2016,10,11,13,31,11.70
2016,10,11,13,32,11.90
2016,10,11,13,33,11.90
2016,10,11,13,34,11.90
2016,10,11,13,35,11.80
2016,10,11,13,36,11.80
2016,10,11,13,37,11.90
2016,10,11,13,38,11.90
2016,10,11,13,39,11.90
2016,10,11,13,40,11.90
2016,10,11,13,41,12.00
2016,10,11,13,42,12.00
2016,10,11,13,43,12.10
2016,10,11,13,44,12.20
2016,10,11,13,45,12.30
2016,10,11,13,46,12.40
2016,10,11,13,47,12.50
2016,10,11,13,48,12.60
2016,10,11,13,49,12.70
2016,10,11,13,50,12.80
2016,10,11,13,51,12.80
2016,10,11,13,52,12.90
2016,10,11,13,53,13.00
2016,10,11,13,54,13.10
2016,10,11,13,55,13.10
2016,10,11,13,56,13.10
2016,10,11,13,57,13.10
2016,10,11,13,58,13.00
2016,10,11,13,59,13.00
2016,10,11,14,00,13.00
2016,10,11,14,01,12.90
2016,10,11,14,02,12.90
2016,10,11,14,03,12.90
2016,10,11,14,04,12.90
2016,10,11,14,05,12.90
2016,10,11,14,06,12.90
2016,10,11,14,07,12.90
2016,10,11,14,08,12.80
2016,10,11,14,09,12.80
2016,10,11,14,10,12.80
2016,10,11,14,11,12.80
2016,10,11,14,12,12.80
2016,10,11,14,13,12.80
2016,10,11,14,14,12.70
2016,10,11,14,15,12.70
2016,10,11,14,16,12.70
2016,10,11,14,17,12.80
2016,10,11,14,18,12.80
2016,10,11,14,19,12.80
2016,10,11,14,20,12.80
2016,10,11,14,21,12.80
2016,10,11,14,22,12.80
2016,10,11,14,23,12.80
2016,10,11,14,24,12.80
2016,10,11,14,25,12.70
2016,10,11,14,26,12.70
2016,10,11,14,27,12.80
2016,10,11,14,28,12.80
2016,10,11,14,29,12.90
2016,10,11,14,30,12.90
2016,10,11,14,31,13.00
2016,10,11,14,32,13.00
2016,10,11,14,33,13.10
2016,10,11,14,34,13.10
2016,10,11,14,35,13.00
2016,10,11,14,36,13.10
2016,10,11,14,37,13.10
2016,10,11,14,38,13.10
2016,10,11,14,39,13.10
2016,10,11,14,40,13.20
2016,10,11,14,41,13.20
2016,10,11,14,42,13.20
2016,10,11,14,43,13.20
2016,10,11,14,44,13.20
2016,10,11,14,45,13.20
2016,10,11,14,46,13.20
2016,10,11,14,47,13.20
2016,10,11,14,48,13.20
2016,10,11,14,49,13.30
2016,10,11,14,50,13.30
2016,10,11,14,51,13.30
2016,10,11,14,52,13.30
2016,10,11,14,53,13.30
2016,10,11,14,54,13.20
2016,10,11,14,55,13.20
2016,10,11,14,56,13.20
2016,10,11,14,57,13.20
2016,10,11,14,58,13.20
2016,10,11,14,59,13.20
2016,10,11,15,00,13.20
2016,10,11,15,01,13.20
2016,10,11,15,02,13.20
2016,10,11,15,03,13.20
2016,10,11,15,04,13.20
2016,10,11,15,05,13.10
2016,10,11,15,06,13.10
2016,10,11,15,07,13.00
2016,10,11,15,08,13.10
2016,10,11,15,09,13.10
2016,10,11,15,10,13.10
2016,10,11,15,11,13.10
2016,10,11,15,12,13.10
2016,10,11,15,13,13.10
2016,10,11,15,14,13.20
2016,10,11,15,15,13.30
2016,10,11,15,16,13.30
2016,10,11,15,17,13.30
2016,10,11,15,18,13.30
2016,10,11,15,19,13.30
2016,10,11,15,20,13.30
2016,10,11,15,21,13.30
2016,10,11,15,22,13.30
2016,10,11,15,23,13.30
2016,10,11,15,24,13.30
2016,10,11,15,25,13.30
2016,10,11,15,26,13.30
2016,10,11,15,27,13.30
2016,10,11,15,28,13.30
2016,10,11,15,29,13.30
2016,10,11,15,30,13.30
2016,10,11,15,31,13.30
2016,10,11,15,32,13.40
2016,10,11,15,33,13.40
2016,10,11,15,34,13.40
2016,10,11,15,35,13.40
2016,10,11,15,36,13.50
2016,10,11,15,37,13.60
2016,10,11,15,38,13.60
2016,10,11,15,39,13.50
2016,10,11,15,40,13.50
2016,10,11,15,41,13.50
2016,10,11,15,42,13.50
2016,10,11,15,43,13.50
2016,10,11,15,44,13.50
2016,10,11,15,45,13.50
2016,10,11,15,46,13.50
2016,10,11,15,47,13.50
2016,10,11,15,48,13.50
2016,10,11,15,49,13.50
2016,10,11,15,50,13.50
2016,10,11,15,51,13.50
2016,10,11,15,52,13.50
2016,10,11,15,53,13.60
2016,10,11,15,54,13.60
2016,10,11,15,55,13.60
2016,10,11,15,56,13.60
2016,10,11,15,57,13.60
2016,10,11,15,58,13.60
2016,10,11,15,59,13.60
2016,10,11,16,00,13.60
2016,10,11,16,01,13.60
2016,10,11,16,02,13.50
2016,10,11,16,03,13.60
2016,10,11,16,04,13.60
2016,10,11,16,05,13.60
2016,10,11,16,06,13.60
2016,10,11,16,07,13.60
2016,10,11,16,08,13.60
2016,10,11,16,09,13.60
2016,10,11,16,10,13.60
2016,10,11,16,11,13.60
2016,10,11,16,12,13.60
2016,10,11,16,13,13.70
2016,10,11,16,14,13.70
2016,10,11,16,15,13.80
2016,10,11,16,16,13.80
2016,10,11,16,17,13.80
2016,10,11,16,18,13.90
2016,10,11,16,19,13.90
2016,10,11,16,20,13.90
2016,10,11,16,21,13.90
2016,10,11,16,22,13.90
2016,10,11,16,23,13.90
2016,10,11,16,24,13.90
2016,10,11,16,25,13.80
2016,10,11,16,26,13.80
2016,10,11,16,27,13.80
2016,10,11,16,28,13.70
2016,10,11,16,29,13.70
2016,10,11,16,30,13.70
2016,10,11,16,31,13.60
2016,10,11,16,32,13.60
2016,10,11,16,33,13.60
2016,10,11,16,34,13.60
2016,10,11,16,35,13.60
2016,10,11,16,36,13.60
2016,10,11,16,37,13.60
2016,10,11,16,38,13.60
2016,10,11,16,39,13.60
2016,10,11,16,40,13.50
2016,10,11,16,41,13.50
2016,10,11,16,42,13.50
2016,10,11,16,43,13.50
2016,10,11,16,44,13.50
2016,10,11,16,45,13.50
2016,10,11,16,46,13.50
2016,10,11,16,47,13.50
2016,10,11,16,48,13.50
2016,10,11,16,49,13.60
2016,10,11,16,50,13.60
2016,10,11,16,51,13.60
2016,10,11,16,52,13.60
2016,10,11,16,53,13.60
2016,10,11,16,54,13.50
2016,10,11,16,55,13.50
2016,10,11,16,56,13.50
2016,10,11,16,57,13.50
2016,10,11,16,58,13.50
2016,10,11,16,59,13.50
2016,10,11,17,00,13.50
2016,10,11,17,01,13.50
2016,10,11,17,02,13.50
2016,10,11,17,03,13.50
2016,10,11,17,04,13.50
2016,10,11,17,05,13.60
2016,10,11,17,06,13.50
2016,10,11,17,07,13.50
2016,10,11,17,08,13.50
2016,10,11,17,09,13.40
2016,10,11,17,10,13.40
2016,10,11,17,11,13.40
2016,10,11,17,12,13.40
2016,10,11,17,13,13.40
2016,10,11,17,14,13.40
2016,10,11,17,15,13.30
2016,10,11,17,16,13.30
2016,10,11,17,17,13.30
2016,10,11,17,18,13.30
2016,10,11,17,19,13.30
2016,10,11,17,20,13.30
2016,10,11,17,21,13.30
2016,10,11,17,22,13.30
2016,10,11,17,23,13.30
2016,10,11,17,24,13.40
2016,10,11,17,25,13.40
2016,10,11,17,26,13.40
2016,10,11,17,27,13.40
2016,10,11,17,28,13.30
2016,10,11,17,29,13.30
2016,10,11,17,30,13.20
2016,10,11,17,31,13.20
2016,10,11,17,32,13.20
2016,10,11,17,33,13.10
2016,10,11,17,34,13.10
2016,10,11,17,35,13.00
2016,10,11,17,36,12.90
2016,10,11,17,37,12.90
2016,10,11,17,38,12.90
2016,10,11,17,39,12.80
2016,10,11,17,40,12.80
2016,10,11,17,41,12.80
2016,10,11,17,42,12.80
2016,10,11,17,43,12.70
2016,10,11,17,44,12.70
2016,10,11,17,45,12.70
2016,10,11,17,46,12.70
2016,10,11,17,47,12.70
2016,10,11,17,48,12.70
2016,10,11,17,49,12.60
2016,10,11,17,50,12.60
2016,10,11,17,51,12.50
2016,10,11,17,52,12.50